VE6HFD-WX Weather Reports


time (UTC)temp
C
wind
direction
speed
KPH
gust
KPH
rain 1hr
cm
rain 24hr
cm
rain mn
cm
humidity
%
barometer
mb
20260503013906 18 235 4.8 8.0 0.00 0.00 0.00 32 1010.7
20260503013406 18 236 9.7 11.3 0.00 0.00 0.00 31 1010.8
20260503012906 18 235 11.3 14.5 0.00 0.00 0.00 29 1010.8
20260503012336 18 247 11.3 19.3 0.00 0.00 0.00 29 1010.9
20260503011806 18 250 12.9 19.3 0.00 0.00 0.00 29 1010.8
20260503011236 18 232 12.9 19.3 0.00 0.00 0.00 28 1010.9
20260503010706 18 260 9.7 12.9 0.00 0.00 0.00 30 1010.9
20260503010206 18 229 16.1 20.9 0.00 0.00 0.00 29 1010.9
20260503005636 19 1 0.0 19.3 0.00 0.00 0.00 27 1011.0
20260503005106 19 3 0.0 0.0 0.00 0.00 0.00 27 1011.1
20260503004536 19 3 0.0 0.0 0.00 0.00 0.00 27 1011.1
20260503004006 19 2 0.0 0.0 0.00 0.00 0.00 27 1011.2
20260503003436 19 3 0.0 0.0 0.00 0.00 0.00 27 1011.3
20260503002936 19 3 0.0 0.0 0.00 0.00 0.00 27 1011.4
20260503002436 19 346 8.0 9.7 0.00 0.00 0.00 27 1011.5
20260503001936 19 242 9.7 9.7 0.00 0.00 0.00 27 1011.6
20260503001406 19 242 11.3 9.7 0.00 0.00 0.00 27 1011.7
20260503000906 19 258 14.5 19.3 0.00 0.00 0.00 28 1011.7
20260503000408 19 240 19.3 20.9 0.00 0.00 0.00 27 1011.8
20260502235836 19 246 12.9 22.5 0.00 0.00 0.00 27 1011.9
20260502235336 19 246 9.7 19.3 0.00 0.00 0.00 26 1011.9
20260502234806 19 268 1.6 4.8 0.00 0.00 0.00 26 1012.0
20260502234306 19 236 12.9 16.1 0.00 0.00 0.00 27 1012.0
20260502233806 19 233 8.0 19.3 0.00 0.00 0.00 27 1012.1
20260502233306 18 247 4.8 14.5 0.00 0.00 0.00 26 1012.2
20260502232806 18 242 8.0 12.9 0.00 0.00 0.00 27 1012.3
20260502232236 19 247 12.9 16.1 0.00 0.00 0.00 27 1012.4
20260502231736 19 233 11.3 16.1 0.00 0.00 0.00 27 1012.5
20260502231206 19 262 16.1 27.4 0.00 0.00 0.00 26 1012.6
20260502230706 20 288 4.8 11.3 0.00 0.00 0.00 26 1012.6
20260502230136 19 263 8.0 8.0 0.00 0.00 0.00 26 1012.7
20260502225636 18 299 11.3 14.5 0.00 0.00 0.00 26 1012.8
20260502225136 19 278 4.8 12.9 0.00 0.00 0.00 27 1012.9
20260502224606 18 222 4.8 8.0 0.00 0.00 0.00 26 1013.0
20260502224036 18 238 9.7 11.3 0.00 0.00 0.00 26 1013.1
20260502223506 18 255 16.1 20.9 0.00 0.00 0.00 28 1013.3
20260502223006 18 280 9.7 11.3 0.00 0.00 0.00 26 1013.3
20260502222506 18 288 9.7 19.3 0.00 0.00 0.00 26 1013.3
20260502222006 18 278 12.9 16.1 0.00 0.00 0.00 28 1013.4
20260502221507 18 265 12.9 25.7 0.00 0.00 0.00 27 1013.4
20260502220936 18 286 4.8 9.7 0.00 0.00 0.00 27 1013.5
20260502220437 18 263 16.1 22.5 0.00 0.00 0.00 28 1013.6
20260502215906 18 293 12.9 16.1 0.00 0.00 0.00 28 1013.6
20260502215407 18 285 16.1 22.5 0.00 0.00 0.00 28 1013.7
20260502214836 18 279 12.9 19.3 0.00 0.00 0.00 29 1013.7
20260502214337 18 227 11.3 12.9 0.00 0.00 0.00 28 1013.8
20260502213837 18 236 9.7 19.3 0.00 0.00 0.00 29 1013.9
20260502213307 18 235 9.7 9.7 0.00 0.00 0.00 30 1014.0
20260502212806 17 269 9.7 11.3 0.00 0.00 0.00 29 1014.1
20260502212237 18 265 11.3 24.1 0.00 0.00 0.00 30 1014.2
20260502211736 18 283 9.7 11.3 0.00 0.00 0.00 30 1014.3
20260502211237 18 274 14.5 20.9 0.00 0.00 0.00 30 1014.3
20260502210736 18 237 3.2 8.0 0.00 0.00 0.00 29 1014.3
20260502210237 17 265 0.0 3.2 0.00 0.00 0.00 30 1014.4
20260502205737 17 290 8.0 11.3 0.00 0.00 0.00 29 1014.5
20260502205207 17 281 12.9 22.5 0.00 0.00 0.00 30 1014.4
20260502204707 17 288 8.0 9.7 0.00 0.00 0.00 30 1014.6
20260502204207 17 249 12.9 16.1 0.00 0.00 0.00 31 1014.7
20260502203707 17 13 9.7 12.9 0.00 0.00 0.00 30 1014.7
20260502203137 17 25 8.0 16.1 0.00 0.00 0.00 32 1014.8
20260502202607 17 305 8.0 9.7 0.00 0.00 0.00 30 1014.9
20260502202107 17 262 9.7 14.5 0.00 0.00 0.00 31 1015.1
20260502201607 17 342 11.3 16.1 0.00 0.00 0.00 31 1015.1
20260502201037 16 235 3.2 4.8 0.00 0.00 0.00 31 1015.1
20260502200537 17 246 12.9 20.9 0.00 0.00 0.00 31 1015.2
20260502200007 16 247 19.3 25.7 0.00 0.00 0.00 33 1015.2
20260502195507 17 290 4.8 9.7 0.00 0.00 0.00 32 1015.4
20260502194937 16 273 11.3 11.3 0.00 0.00 0.00 32 1015.4
20260502194437 16 288 11.3 22.5 0.00 0.00 0.00 33 1015.6
20260502193907 16 287 4.8 25.7 0.00 0.00 0.00 31 1015.6
20260502193407 16 286 8.0 4.8 0.00 0.00 0.00 32 1015.7
20260502192907 16 267 14.5 19.3 0.00 0.00 0.00 33 1015.8
20260502192337 16 293 16.1 19.3 0.00 0.00 0.00 33 1015.8
20260502191837 16 259 12.9 16.1 0.00 0.00 0.00 33 1015.9
20260502191307 16 273 19.3 20.9 0.00 0.00 0.00 33 1016.0
20260502190737 16 322 12.9 19.3 0.00 0.00 0.00 33 1015.9
20260502190237 16 1 14.5 19.3 0.00 0.00 0.00 32 1016.0
20260502185707 16 10 9.7 12.9 0.00 0.00 0.00 31 1016.1
20260502185207 16 356 14.5 19.3 0.00 0.00 0.00 31 1016.1
20260502184707 16 25 9.7 14.5 0.00 0.00 0.00 31 1016.1
20260502184137 16 334 9.7 16.1 0.00 0.00 0.00 32 1016.2
20260502183637 16 8 11.3 20.9 0.00 0.00 0.00 32 1016.3
20260502183107 15 357 9.7 16.1 0.00 0.00 0.00 31 1016.4
20260502182607 16 318 11.3 19.3 0.00 0.00 0.00 31 1016.4
20260502182107 16 341 4.8 8.0 0.00 0.00 0.00 31 1016.4
20260502181537 15 351 11.3 19.3 0.00 0.00 0.00 31 1016.5
20260502181007 16 302 12.9 16.1 0.00 0.00 0.00 33 1016.5
20260502180507 15 23 4.8 9.7 0.00 0.00 0.00 31 1016.5
20260502170107 14 290 3.2 4.8 0.00 0.00 0.00 39 1017.1
20260502163937 13 319 3.2 11.3 0.00 0.00 0.00 43 1017.3
20260502163437 13 346 4.8 4.8 0.00 0.00 0.00 43 1017.3
20260502162907 13 347 4.8 8.0 0.00 0.00 0.00 43 1017.3
20260502162407 13 348 3.2 4.8 0.00 0.00 0.00 43 1017.3
20260502161837 13 2 4.8 11.3 0.00 0.00 0.00 44 1017.3
20260502161307 13 324 3.2 4.8 0.00 0.00 0.00 45 1017.3
20260502160807 13 340 8.0 9.7 0.00 0.00 0.00 45 1017.3
20260502160237 13 359 8.0 9.7 0.00 0.00 0.00 46 1017.3
20260502152007 11 336 8.0 14.5 0.00 0.00 0.00 56 1017.5
20260502151437 11 333 4.8 9.7 0.00 0.00 0.00 56 1017.5
20260502150907 11 318 4.8 12.9 0.00 0.00 0.00 59 1017.4
20260502150407 11 294 8.0 12.9 0.00 0.00 0.00 61 1017.4
20260502130407 4 281 12.9 16.1 0.00 0.00 0.00 83 1017.1
20260502123707 3 276 11.3 14.5 0.00 0.00 0.00 84 1016.9
20260502123137 3 274 12.9 14.5 0.00 0.00 0.00 84 1016.9
20260502122637 3 274 11.3 14.5 0.00 0.00 0.00 84 1016.9
20260502122107 3 279 11.3 14.5 0.00 0.00 0.00 85 1016.9
20260502121607 3 277 11.3 12.9 0.00 0.00 0.00 84 1016.8
20260502121107 3 274 12.9 14.5 0.00 0.00 0.00 85 1016.7
20260502120607 3 275 12.9 16.1 0.00 0.00 0.00 85 1016.7
20260502120107 3 278 11.3 12.9 0.00 0.00 0.00 85 1016.7
20260502115607 3 276 12.9 14.5 0.00 0.00 0.00 85 1016.7
20260502115037 3 274 11.3 14.5 0.00 0.00 0.00 85 1016.6
20260502114507 3 276 11.3 12.9 0.00 0.00 0.00 84 1016.6
20260502114007 3 275 4.8 4.8 0.00 0.00 0.00 84 1016.5
20260502113507 3 275 11.3 11.3 0.00 0.00 0.00 84 1016.6
20260502112937 3 277 11.3 12.9 0.00 0.00 0.00 84 1016.5
20260502112437 3 279 11.3 12.9 0.00 0.00 0.00 84 1016.5
20260502111907 3 274 11.3 12.9 0.00 0.00 0.00 84 1016.6
20260502111407 3 272 11.3 12.9 0.00 0.00 0.00 83 1016.6
20260502110837 3 273 11.3 11.3 0.00 0.00 0.00 82 1016.5
20260502110337 4 280 9.7 11.3 0.00 0.00 0.00 82 1016.5
20260502105837 4 284 8.0 11.3 0.00 0.00 0.00 82 1016.4
20260502105307 4 289 8.0 11.3 0.00 0.00 0.00 82 1016.4
20260502104807 4 283 9.7 11.3 0.00 0.00 0.00 82 1016.4
20260502104237 5 284 9.7 12.9 0.00 0.00 0.00 82 1016.3
20260502103737 5 283 9.7 11.3 0.00 0.00 0.00 82 1016.3
20260502103207 5 284 9.7 11.3 0.00 0.00 0.00 82 1016.2
20260502102637 5 282 11.3 12.9 0.00 0.00 0.00 82 1016.1
20260502102137 5 281 12.9 14.5 0.00 0.00 0.00 82 1016.1
20260502101607 5 276 11.3 11.3 0.00 0.00 0.00 81 1016.0
20260502101037 5 274 9.7 11.3 0.00 0.00 0.00 81 1016.0
20260502100537 5 281 11.3 12.9 0.00 0.00 0.00 81 1016.1
20260502091237 6 293 11.3 14.5 0.00 0.00 0.00 78 1015.5
20260502090707 6 297 8.0 11.3 0.00 0.00 0.00 78 1015.5
20260502090137 6 293 8.0 12.9 0.00 0.00 0.00 78 1015.4
20260502071107 7 276 11.3 14.5 0.00 0.00 0.00 77 1014.8
20260502070607 7 278 9.7 12.9 0.00 0.00 0.00 77 1014.8
20260502070107 7 274 9.7 11.3 0.00 0.00 0.00 76 1014.8
20260502065537 7 278 9.7 11.3 0.00 0.00 0.00 75 1014.8
20260502065007 7 276 9.7 14.5 0.00 0.00 0.00 74 1014.8
20260502064437 7 280 8.0 9.7 0.00 0.00 0.00 73 1014.7
20260502063907 7 283 8.0 9.7 0.00 0.00 0.00 72 1014.8
20260502063337 8 287 12.9 14.5 0.00 0.00 0.00 71 1014.7
20260502062837 8 295 11.3 12.9 0.00 0.00 0.00 71 1014.6
20260502062307 8 289 9.7 11.3 0.00 0.00 0.00 70 1014.6
20260502061807 8 281 14.5 16.1 0.00 0.00 0.00 69 1014.6
20260502061307 8 291 11.3 12.9 0.00 0.00 0.00 71 1014.6
20260502060737 9 285 11.3 14.5 0.00 0.00 0.00 67 1014.6
20260502060207 10 303 4.8 4.8 0.00 0.00 0.00 66 1014.5
20260502055707 10 325 3.2 4.8 0.00 0.00 0.00 67 1014.4
20260502055207 10 317 3.2 4.8 0.00 0.00 0.00 68 1014.5
20260502054637 10 342 3.2 4.8 0.00 0.00 0.00 66 1014.3
20260502054107 10 349 8.0 9.7 0.00 0.00 0.00 67 1014.4
20260502053607 10 5 8.0 8.0 0.00 0.00 0.00 66 1014.4
20260502053037 11 0 8.0 8.0 0.00 0.00 0.00 66 1014.4
20260502052507 11 0 8.0 8.0 0.00 0.00 0.00 66 1014.3
20260502052007 11 358 8.0 8.0 0.00 0.00 0.00 66 1014.5
20260502051437 11 333 8.0 8.0 0.00 0.00 0.00 65 1014.6
20260502050907 11 332 9.7 9.7 0.00 0.00 0.00 64 1014.5
20260502050407 11 339 9.7 12.9 0.00 0.00 0.00 66 1014.6
20260502045837 11 323 4.8 4.8 0.00 0.00 0.00 65 1014.5
20260502045307 11 331 8.0 8.0 0.00 0.00 0.00 64 1014.6
20260502044737 11 350 8.0 9.7 0.00 0.00 0.00 63 1014.5
20260502044237 11 336 4.8 4.8 0.00 0.00 0.00 63 1014.4
20260502043707 11 322 4.8 4.8 0.00 0.00 0.00 63 1014.4
20260502043137 11 290 4.8 4.8 0.00 0.00 0.00 64 1014.5
20260502042607 11 282 8.0 11.3 0.00 0.00 0.00 64 1014.5
20260502042037 12 302 3.2 4.8 0.00 0.00 0.00 63 1014.4
20260502041507 12 318 3.2 4.8 0.00 0.00 0.00 63 1014.4
20260502040937 11 331 3.2 4.8 0.00 0.00 0.00 63 1014.3
20260502040407 12 327 3.2 4.8 0.00 0.00 0.00 63 1014.4
20260502035837 11 338 4.8 8.0 0.00 0.00 0.00 64 1014.4
20260502035307 11 338 8.0 9.7 0.00 0.00 0.00 64 1014.4
20260502034737 12 317 3.2 4.8 0.00 0.00 0.00 65 1014.3
20260502034207 12 316 4.8 9.7 0.00 0.00 0.00 64 1014.3
20260502033637 12 347 9.7 9.7 0.00 0.00 0.00 62 1014.1
20260502033107 12 4 9.7 11.3 0.00 0.00 0.00 62 1013.9
20260502032537 12 2 8.0 11.3 0.00 0.00 0.00 61 1013.7
20260502032007 12 0 11.3 14.5 0.00 0.00 0.00 61 1013.6
20260502031437 12 6 12.9 19.3 0.00 0.00 0.00 60 1013.5
20260502030907 12 359 16.1 19.3 0.00 0.00 0.00 59 1013.5
20260502030337 13 8 19.3 27.4 0.00 0.00 0.00 55 1013.4
20260502025807 13 15 20.9 24.1 0.00 0.00 0.00 55 1013.2
20260502025237 14 5 9.7 9.7 0.00 0.00 0.00 51 1013.0
20260502024707 14 5 11.3 14.5 0.00 0.00 0.00 50 1012.8
20260502024137 14 18 11.3 14.5 0.00 0.00 0.00 49 1012.8
20260502023607 15 15 14.5 16.1 0.00 0.00 0.00 48 1012.7
20260502023037 15 10 12.9 19.3 0.00 0.00 0.00 48 1012.6
20260502022507 15 19 9.7 12.9 0.00 0.00 0.00 48 1012.5
20260502021937 15 21 11.3 12.9 0.00 0.00 0.00 47 1012.5
20260502021407 15 30 9.7 12.9 0.00 0.00 0.00 47 1012.4
20260502020837 15 24 11.3 12.9 0.00 0.00 0.00 46 1012.3
20260502020307 15 23 11.3 16.1 0.00 0.00 0.00 46 1012.1
20260502015807 15 21 12.9 16.1 0.00 0.00 0.00 46 1012.1
20260502015237 15 30 11.3 19.3 0.00 0.00 0.00 45 1011.9
20260502014707 16 28 12.9 19.3 0.00 0.00 0.00 44 1011.9